Location: Sternwarte_Laufen
(47.9344°N, 12.9346°E)
Time: 01:32:49
(UTC+02:00)

Envisat - Pass Details

Date: 10 May 2026
Orbit: 761 x 763 km, 98.4° (Epoch: 7 June)

Event Time Altitude Azimuth Distance (km) Brightness Sun altitude
Rises 04:03:09 0° 13° (NNE) 3,236 7.3 -13.3°
Reaches altitude 10° 04:05:28 10° 12° (NNE) 2,306 6.4 -13.0°
Maximum altitude 04:10:33 79° 286° (WNW) 782 3.0 -12.4°
Enters shadow 04:14:59 14° 201° (SSW) 2,051 4.7 -11.9°
